TERMEEREN Weather Reports


time (UTC)temp
C
wind
direction
speed
KPH
gust
KPH
rain 1hr
cm
rain 24hr
cm
rain mn
cm
humidity
%
barometer
mb
20260510063912 11 324 1.6 8.0 0.00 0.00 0.00 83 1015.3
20260510063405 11 338 0.0 8.0 0.00 0.00 0.00 84 1015.3
20260510062919 11 350 0.0 9.7 0.00 0.00 0.00 84 1015.4
20260510062411 11 309 1.6 9.7 0.00 0.00 0.00 84 1015.4
20260510061923 11 320 1.6 8.0 0.00 0.00 0.00 84 1015.5
20260510061408 11 293 1.6 6.4 0.00 0.00 0.00 85 1015.4
20260510060914 11 359 0.0 4.8 0.00 0.00 0.00 85 1015.5
20260510060420 11 335 1.6 8.0 0.00 0.00 0.00 85 1015.5
20260510055945 11 22 1.6 9.7 0.00 0.00 0.00 84 1015.4
20260510055413 11 330 0.0 4.8 0.00 0.00 0.00 84 1015.3
20260510054922 11 347 1.6 8.0 0.00 0.00 0.00 84 1015.4
20260510054437 11 283 1.6 8.0 0.00 0.00 0.00 84 1015.3
20260510053918 11 307 0.0 6.4 0.00 0.00 0.00 84 1015.3
20260510053502 11 311 1.6 6.4 0.00 0.00 0.00 84 1015.3
20260510052923 11 328 0.0 3.2 0.00 0.00 0.00 84 1015.3
20260510052429 11 323 0.0 4.8 0.00 0.00 0.00 84 1015.3
20260510051920 10 358 0.0 4.8 0.00 0.00 0.00 84 1015.2
20260510051432 10 313 0.0 4.8 0.00 0.00 0.00 84 1015.3
20260510050942 10 326 0.0 4.8 0.00 0.00 0.00 84 1015.3
20260510050410 10 10 0.0 3.2 0.00 0.00 0.00 84 1015.3
20260510045944 10 307 0.0 4.8 0.00 0.00 0.00 84 1015.3
20260510045426 10 299 0.0 6.4 0.00 0.00 0.00 84 1015.3
20260510044908 10 297 0.0 0.0 0.00 0.00 0.00 84 1015.3
20260510044516 10 349 0.0 0.0 0.00 0.00 0.00 84 1015.3
20260510044012 10 306 0.0 0.0 0.00 0.00 0.00 84 1015.3
20260510043433 10 293 0.0 0.0 0.00 0.00 0.00 84 1015.3
20260510042926 10 307 0.0 0.0 0.00 0.00 0.00 84 1015.3
20260510042417 10 358 0.0 0.0 0.00 0.00 0.00 83 1015.3
20260510041424 10 330 0.0 0.0 0.00 0.00 0.00 83 1015.2
20260510040908 10 339 0.0 0.0 0.00 0.00 0.00 83 1015.2
20260510040414 10 278 0.0 3.2 0.00 0.00 0.00 83 1015.2
20260510035906 10 347 0.0 3.2 0.00 0.00 0.00 82 1015.2
20260510035422 10 317 0.0 1.6 0.00 0.00 0.00 82 1015.1
20260510035103 10 293 0.0 0.0 0.00 0.00 0.00 82 1015.1
20260510034427 10 295 0.0 0.0 0.00 0.00 0.00 82 1015.2
20260510033928 10 270 0.0 0.0 0.00 0.00 0.00 82 1015.2
20260510033410 10 295 0.0 1.6 0.00 0.00 0.00 82 1015.3
20260510032923 10 311 0.0 3.2 0.00 0.00 0.00 82 1015.3
20260510032435 10 293 0.0 3.2 0.00 0.00 0.00 81 1015.2
20260510031918 10 309 0.0 3.2 0.00 0.00 0.00 81 1015.2
20260510031421 10 305 0.0 0.0 0.00 0.00 0.00 81 1015.2
20260510030912 10 284 0.0 0.0 0.00 0.00 0.00 81 1015.4
20260510030431 10 300 0.0 0.0 0.00 0.00 0.00 81 1015.4
20260510025929 10 299 0.0 0.0 0.00 0.00 0.00 81 1015.4
20260510025414 10 307 0.0 0.0 0.00 0.00 0.00 80 1015.4
20260510024910 10 315 0.0 0.0 0.00 0.00 0.00 80 1015.5
20260510024444 10 317 0.0 0.0 0.00 0.00 0.00 80 1015.5
20260510023923 10 314 0.0 1.6 0.00 0.00 0.00 80 1015.6
20260510023424 10 307 0.0 1.6 0.00 0.00 0.00 79 1015.5
20260510022912 10 315 0.0 0.0 0.00 0.00 0.00 79 1015.5
20260510022429 10 291 0.0 0.0 0.00 0.00 0.00 79 1015.5
20260510021950 10 307 0.0 0.0 0.00 0.00 0.00 78 1015.4
20260510021435 10 301 0.0 0.0 0.00 0.00 0.00 78 1015.6
20260510020905 11 295 0.0 3.2 0.00 0.00 0.00 77 1015.5
20260510020412 11 290 0.0 3.2 0.00 0.00 0.00 77 1015.5
20260510015924 11 298 0.0 0.0 0.00 0.00 0.00 77 1015.5
20260510015408 11 311 0.0 0.0 0.00 0.00 0.00 77 1015.5
20260510014920 11 309 0.0 0.0 0.00 0.00 0.00 77 1015.6
20260510014418 11 320 0.0 0.0 0.00 0.00 0.00 76 1015.6
20260510013919 11 304 0.0 3.2 0.00 0.00 0.00 76 1015.7
20260510013543 11 300 0.0 3.2 0.00 0.00 0.00 76 1015.7
20260510013105 11 321 0.0 1.6 0.00 0.00 0.00 76 1015.8
20260510012431 11 319 0.0 1.6 0.00 0.00 0.00 76 1015.8
20260510011910 11 279 0.0 0.0 0.00 0.00 0.00 75 1015.8
20260510011424 11 278 0.0 0.0 0.00 0.00 0.00 75 1015.9
20260510010935 11 293 0.0 0.0 0.00 0.00 0.00 75 1015.9
20260510010436 11 290 0.0 0.0 0.00 0.00 0.00 75 1015.9
20260510005942 11 291 0.0 0.0 0.00 0.00 0.00 74 1015.9
20260510005407 11 274 0.0 0.0 0.00 0.00 0.00 74 1016.0
20260510004934 11 275 0.0 1.6 0.00 0.00 0.00 74 1016.0
20260510004425 11 275 0.0 1.6 0.00 0.00 0.00 74 1016.0
20260510003914 11 326 0.0 3.2 0.00 0.00 0.00 74 1016.0
20260510003421 11 291 0.0 3.2 0.00 0.00 0.00 73 1016.0
20260510002915 11 306 0.0 0.0 0.00 0.00 0.00 73 1016.1
20260510002411 11 304 0.0 0.0 0.00 0.00 0.00 73 1016.1
20260510001917 11 315 0.0 0.0 0.00 0.00 0.00 73 1016.2
20260510001435 12 319 0.0 0.0 0.00 0.00 0.00 72 1016.2
20260510000921 12 328 0.0 0.0 0.00 0.00 0.00 72 1016.2
20260510000418 12 328 0.0 0.0 0.00 0.00 0.00 72 1016.2
20260509235910 12 328 0.0 0.0 0.00 0.00 0.00 72 1016.2
20260509235422 12 307 0.0 0.0 0.00 0.00 0.00 72 1016.3
20260509234913 12 293 0.0 0.0 0.00 0.00 0.00 71 1016.3
20260509234418 12 307 0.0 0.0 0.00 0.00 0.00 71 1016.3
20260509233929 12 288 0.0 0.0 0.00 0.00 0.00 70 1016.3
20260509233422 12 293 0.0 0.0 0.00 0.00 0.00 70 1016.4
20260509232905 12 293 0.0 0.0 0.00 0.00 0.00 69 1016.3
20260509232419 12 291 0.0 0.0 0.00 0.00 0.00 69 1016.4
20260509232046 12 297 0.0 0.0 0.00 0.00 0.00 69 1016.5
20260509231417 12 299 0.0 0.0 0.00 0.00 0.00 69 1016.5
20260509230917 12 299 0.0 0.0 0.00 0.00 0.00 69 1016.5
20260509230433 12 300 0.0 0.0 0.00 0.00 0.00 69 1016.6
20260509225931 12 276 0.0 0.0 0.00 0.00 0.00 69 1016.6
20260509225415 12 268 0.0 0.0 0.00 0.00 0.00 69 1016.5
20260509224908 13 269 0.0 0.0 0.00 0.00 0.00 69 1016.4
20260509224413 13 286 0.0 0.0 0.00 0.00 0.00 69 1016.4
20260509223958 13 301 0.0 0.0 0.00 0.00 0.00 69 1016.4
20260509223429 13 326 0.0 0.0 0.00 0.00 0.00 69 1016.3
20260509222919 13 326 0.0 0.0 0.00 0.00 0.00 68 1016.4
20260509222436 13 314 0.0 0.0 0.00 0.00 0.00 68 1016.5
20260509221927 13 298 0.0 0.0 0.00 0.00 0.00 68 1016.5
20260509221422 13 299 0.0 0.0 0.00 0.00 0.00 68 1016.5
20260509220936 13 290 0.0 0.0 0.00 0.00 0.00 67 1016.5
20260509220422 13 296 0.0 0.0 0.00 0.00 0.00 67 1016.4
20260509215942 13 285 0.0 0.0 0.00 0.00 0.00 67 1016.5
20260509215432 13 285 0.0 0.0 0.00 0.00 0.00 67 1016.5
20260509214933 13 307 0.0 0.0 0.00 0.00 0.00 67 1016.5
20260509214441 13 296 0.0 0.0 0.00 0.00 0.00 67 1016.5
20260509213945 13 296 0.0 0.0 0.00 0.00 0.00 67 1016.4
20260509213413 13 285 0.0 0.0 0.00 0.00 0.00 67 1016.5
20260509212905 14 297 0.0 0.0 0.00 0.00 0.00 66 1016.5
20260509212420 14 297 0.0 0.0 0.00 0.00 0.00 66 1016.6
20260509211924 14 297 0.0 0.0 0.00 0.00 0.00 66 1016.6
20260509211437 14 297 0.0 0.0 0.00 0.00 0.00 65 1016.6
20260509210908 14 301 0.0 0.0 0.00 0.00 0.00 65 1016.5
20260509210436 14 303 0.0 0.0 0.00 0.00 0.00 66 1016.4
20260509205920 14 347 0.0 0.0 0.00 0.00 0.00 65 1016.3
20260509205442 14 2 0.0 0.0 0.00 0.00 0.00 65 1016.3
20260509204940 14 324 0.0 1.6 0.00 0.00 0.00 65 1016.2
20260509204420 14 300 0.0 1.6 0.00 0.00 0.00 65 1016.3
20260509203912 15 300 0.0 0.0 0.00 0.00 0.00 65 1016.4
20260509203427 15 299 0.0 0.0 0.00 0.00 0.00 64 1016.4
20260509202908 15 307 0.0 0.0 0.00 0.00 0.00 64 1016.5
20260509202416 15 300 0.0 3.2 0.00 0.00 0.00 64 1016.4
20260509201916 15 307 0.0 3.2 0.00 0.00 0.00 63 1016.5
20260509201409 15 297 0.0 3.2 0.00 0.00 0.00 63 1016.4
20260509200505 15 297 0.0 0.0 0.00 0.00 0.00 62 1016.3
20260509195925 15 297 0.0 1.6 0.00 0.00 0.00 62 1016.3
20260509195433 15 302 0.0 4.8 0.00 0.00 0.00 61 1016.2
20260509194933 16 302 1.6 4.8 0.00 0.00 0.00 61 1016.2
20260509194442 16 313 0.0 0.0 0.00 0.00 0.00 60 1016.1
20260509193944 16 322 0.0 0.0 0.00 0.00 0.00 59 1016.2
20260509193423 16 303 0.0 3.2 0.00 0.00 0.00 59 1016.1
20260509192920 16 278 0.0 3.2 0.00 0.00 0.00 58 1016.1
20260509192503 16 3 0.0 0.0 0.00 0.00 0.00 57 1016.1
20260509191915 17 303 0.0 0.0 0.00 0.00 0.00 56 1016.0
20260509191410 17 297 0.0 0.0 0.00 0.00 0.00 55 1015.9
20260509190908 17 292 0.0 0.0 0.00 0.00 0.00 54 1015.9
20260509190416 17 289 0.0 0.0 0.00 0.00 0.00 54 1016.0
20260509185452 18 297 0.0 0.0 0.00 0.00 0.00 53 1015.9
20260509184940 18 297 0.0 0.0 0.00 0.00 0.00 52 1015.9
20260509184430 18 297 0.0 0.0 0.00 0.00 0.00 52 1015.9
20260509183921 18 297 0.0 0.0 0.00 0.00 0.00 51 1015.9
20260509183422 19 299 0.0 0.0 0.00 0.00 0.00 51 1015.8
20260509182906 19 292 0.0 0.0 0.00 0.00 0.00 50 1015.7
20260509182419 19 306 0.0 1.6 0.00 0.00 0.00 49 1015.8
20260509181921 20 290 0.0 1.6 0.00 0.00 0.00 48 1015.8
20260509181413 20 274 0.0 0.0 0.00 0.00 0.00 48 1015.8
20260509180926 20 281 0.0 1.6 0.00 0.00 0.00 47 1015.8
20260509180424 20 299 0.0 1.6 0.00 0.00 0.00 47 1015.8
20260509175933 21 272 0.0 0.0 0.00 0.00 0.00 45 1015.9
20260509175412 20 272 0.0 1.6 0.00 0.00 0.00 47 1015.9
20260509174924 20 273 0.0 3.2 0.00 0.00 0.00 47 1015.9
20260509174430 20 289 0.0 4.8 0.00 0.00 0.00 47 1015.9
20260509173905 20 18 0.0 6.4 0.00 0.00 0.00 47 1015.9
20260509173428 20 341 0.0 8.0 0.00 0.00 0.00 47 1015.8
20260509172918 20 343 1.6 9.7 0.00 0.00 0.00 48 1015.7
20260509172433 20 316 3.2 9.7 0.00 0.00 0.00 47 1015.7
20260509171916 21 333 3.2 9.7 0.00 0.00 0.00 46 1015.7
20260509171418 21 257 0.0 0.0 0.00 0.00 0.00 45 1015.6
20260509170919 21 270 0.0 3.2 0.00 0.00 0.00 44 1015.5
20260509170417 21 14 0.0 6.4 0.00 0.00 0.00 44 1015.6
20260509165913 21 286 3.2 6.4 0.00 0.00 0.00 46 1015.6
20260509165425 21 341 1.6 6.4 0.00 0.00 0.00 46 1015.7
20260509164910 21 304 3.2 6.4 0.00 0.00 0.00 46 1015.7
20260509164423 21 299 3.2 8.0 0.00 0.00 0.00 46 1015.8
20260509163927 21 358 3.2 8.0 0.00 0.00 0.00 46 1015.8
20260509163417 21 285 3.2 6.4 0.00 0.00 0.00 45 1015.8
20260509162939 22 4 1.6 3.2 0.00 0.00 0.00 44 1015.9
20260509162420 22 209 0.0 4.8 0.00 0.00 0.00 44 1015.8
20260509161914 22 288 0.0 3.2 0.00 0.00 0.00 44 1015.8
20260509161418 22 285 0.0 4.8 0.00 0.00 0.00 43 1015.8
20260509160925 21 4 0.0 4.8 0.00 0.00 0.00 43 1015.8
20260509160431 21 273 0.0 3.2 0.00 0.00 0.00 44 1015.8
20260509155929 21 273 0.0 6.4 0.00 0.00 0.00 46 1015.8
20260509155447 21 263 0.0 6.4 0.00 0.00 0.00 48 1015.8
20260509154437 21 308 0.0 1.6 0.00 0.00 0.00 46 1015.7
20260509153911 21 26 0.0 3.2 0.00 0.00 0.00 46 1015.8
20260509153426 22 232 0.0 3.2 0.00 0.00 0.00 44 1015.8
20260509152916 22 274 0.0 3.2 0.00 0.00 0.00 44 1015.9
20260509152427 22 44 0.0 6.4 0.00 0.00 0.00 45 1016.0
20260509151933 22 44 0.0 8.0 0.00 0.00 0.00 45 1016.0
20260509151436 22 247 1.6 8.0 0.00 0.00 0.00 42 1016.0
20260509150923 21 15 0.0 1.6 0.00 0.00 0.00 45 1016.0
20260509150439 21 15 0.0 1.6 0.00 0.00 0.00 45 1016.1
20260509145926 21 15 0.0 1.6 0.00 0.00 0.00 44 1016.0
20260509145415 22 271 0.0 0.0 0.00 0.00 0.00 42 1016.1
20260509144914 22 271 0.0 4.8 0.00 0.00 0.00 45 1016.0
20260509144419 22 271 1.6 4.8 0.00 0.00 0.00 40 1016.2
20260509143932 22 131 0.0 1.6 0.00 0.00 0.00 43 1016.1
20260509143409 22 131 0.0 0.0 0.00 0.00 0.00 47 1016.3
20260509142922 22 131 0.0 1.6 0.00 0.00 0.00 44 1016.3
20260509142413 22 131 0.0 3.2 0.00 0.00 0.00 43 1016.3
20260509141918 22 268 0.0 3.2 0.00 0.00 0.00 40 1016.3
20260509140929 22 82 0.0 1.6 0.00 0.00 0.00 48 1016.4
20260509140409 22 91 0.0 0.0 0.00 0.00 0.00 45 1016.5
20260509135916 22 311 0.0 1.6 0.00 0.00 0.00 47 1016.5
20260509135419 21 305 0.0 3.2 0.00 0.00 0.00 47 1016.5
20260509134907 21 322 0.0 6.4 0.00 0.00 0.00 48 1016.5
20260509134408 21 288 1.6 6.4 0.00 0.00 0.00 45 1016.5
20260509133922 21 18 0.0 0.0 0.00 0.00 0.00 45 1016.6
20260509133433 21 18 0.0 3.2 0.00 0.00 0.00 46 1016.6
20260509132921 21 18 0.0 3.2 0.00 0.00 0.00 46 1016.6
20260509132435 21 23 0.0 3.2 0.00 0.00 0.00 46 1016.7
20260509131909 22 281 0.0 0.0 0.00 0.00 0.00 45 1016.8
20260509131408 21 49 0.0 0.0 0.00 0.00 0.00 48 1016.9
20260509130937 21 49 0.0 1.6 0.00 0.00 0.00 45 1016.9
20260509130423 21 49 0.0 4.8 0.00 0.00 0.00 49 1017.0
20260509125920 21 15 0.0 4.8 0.00 0.00 0.00 48 1017.1
20260509124919 20 310 1.6 6.4 0.00 0.00 0.00 48 1017.2
20260509124450 20 300 3.2 6.4 0.00 0.00 0.00 49 1017.3
20260509123918 20 16 1.6 9.7 0.00 0.00 0.00 48 1017.2
20260509122916 21 5 0.0 1.6 0.00 0.00 0.00 46 1017.4
20260509122419 21 6 0.0 1.6 0.00 0.00 0.00 46 1017.4
20260509121911 21 278 0.0 1.6 0.00 0.00 0.00 46 1017.4
20260509121445 21 278 0.0 1.6 0.00 0.00 0.00 45 1017.5
20260509115912 20 278 0.0 1.6 0.00 0.00 0.00 47 1017.7
20260509114931 21 249 1.6 3.2 0.00 0.00 0.00 44 1017.7
20260509114414 21 264 0.0 3.2 0.00 0.00 0.00 48 1017.7
20260509113939 20 279 0.0 1.6 0.00 0.00 0.00 47 1017.7
20260509113431 20 274 0.0 3.2 0.00 0.00 0.00 47 1017.8
20260509112911 20 335 0.0 1.6 0.00 0.00 0.00 49 1017.9
20260509112425 20 335 0.0 1.6 0.00 0.00 0.00 50 1017.9
20260509111910 20 335 0.0 3.2 0.00 0.00 0.00 47 1018.0
20260509111419 20 340 0.0 3.2 0.00 0.00 0.00 48 1018.0
20260509083920 15 278 0.0 0.0 0.00 0.00 0.00 69 1018.4
20260509083421 15 278 0.0 0.0 0.00 0.00 0.00 71 1018.5
20260509082947 15 278 0.0 0.0 0.00 0.00 0.00 70 1018.5
20260509082406 14 278 0.0 0.0 0.00 0.00 0.00 72 1018.6
20260509081946 14 278 0.0 0.0 0.00 0.00 0.00 71 1018.6
20260509081427 14 278 0.0 0.0 0.00 0.00 0.00 73 1018.8
20260509080918 13 278 0.0 0.0 0.00 0.00 0.00 72 1018.8
20260509080418 13 278 0.0 0.0 0.00 0.00 0.00 74 1018.9
20260509075915 13 278 0.0 0.0 0.00 0.00 0.00 74 1018.9
20260509075408 13 278 0.0 0.0 0.00 0.00 0.00 74 1018.9
20260509074937 13 278 0.0 0.0 0.00 0.00 0.00 75 1019.0
20260509074430 13 278 0.0 0.0 0.00 0.00 0.00 76 1019.0
20260509073930 13 278 0.0 1.6 0.00 0.00 0.00 76 1019.0
20260509073417 13 278 0.0 1.6 0.00 0.00 0.00 76 1019.0
20260509072913 13 278 0.0 0.0 0.00 0.00 0.00 76 1019.0
20260509072442 13 278 0.0 0.0 0.00 0.00 0.00 77 1019.0
20260509071934 12 278 0.0 0.0 0.00 0.00 0.00 76 1019.0
20260509071418 12 278 0.0 0.0 0.00 0.00 0.00 77 1019.1
20260509070909 12 278 0.0 0.0 0.00 0.00 0.00 79 1019.1
20260509070435 12 278 0.0 0.0 0.00 0.00 0.00 80 1019.0
20260509065931 12 278 0.0 0.0 0.00 0.00 0.00 79 1018.9
20260509065419 12 278 0.0 0.0 0.00 0.00 0.00 81 1019.0
20260509064920 11 278 0.0 0.0 0.00 0.00 0.00 82 1019.0
20260509064426 11 278 0.0 0.0 0.00 0.00 0.00 88 1018.9